Regional Weather Roundup
Issued by NWS

Home | Current Version | Previous Version | Graphics & Text | Print | Product List | Glossary On
Versions: 1 2 3 4 5 6 7 8 9 10 11 12 13 14 15 16 17 18 19 20 21 22 23 24 25 26 27 28 29 30 31 32 33 34 35 36 37 38 39 40 41 42 43 44 45 46 47 48 49 50
741
ASUS45 KTFX 180610
RWRMT
MONTANA REGIONAL WEATHER ROUNDUP
NATIONAL WEATHER SERVICE GREAT FALLS MT
1100 PM MST TUE JAN 17 2017

NOTE: "FAIR" INDICATES FEW OR NO CLOUDS BELOW 12000 FEET WITH NO
SIGNIFICANT WEATHER AND/OR OBSTRUCTIONS TO VISIBILITY.

MTZ001>007-043-180700-
WEST OF THE DIVIDE

CITY           SKY/WX    TMP DP  RH WIND       PRES   REMARKS
KALISPELL      CLOUDY    19  17  92 CALM      29.83F
MISSOULA       MOCLDY     9   6  88 CALM      29.92F
BUTTE          CLOUDY    11   5  77 E3        29.91F
MULLAN PASS    CLOUDY    30  15  53 VRB5      29.76F
ANACONDA         N/A     32  16  51 SE22G28   29.86S WCI  19
DEER LODGE       N/A     32  18  55 SE3       29.86F
EUREKA           N/A     27  21  80 CALM      29.79F
HAMILTON         N/A     10   7  85 CALM      29.87S
RONAN            N/A     11   7  84 MISG      29.88S
$$

MTZ008-052>055-180700-
SOUTHWEST MONTANA

CITY           SKY/WX    TMP DP  RH WIND       PRES   REMARKS
BOZEMAN        CLOUDY     9   4  80 SE13      29.93R WCI  -7
DILLON         CLOUDY    25  10  53 S7        29.96S WCI  17
W YELLOWSTONE  CLOUDY    -8 N/A N/A CALM      30.13S
ENNIS          CLEAR     25  14  63 S15G25    30.01R WCI  12
TWIN BRIDGES     N/A     25   8  48 E8        29.96F WCI  16
$$

MTZ009-010-012-014-046-048-049-054-180700-
EAST SLOPES AND CENTRAL MONTANA

CITY           SKY/WX    TMP DP  RH WIND       PRES   REMARKS
CUT BANK       CLOUDY    43  24  47 S17       29.60R
GREAT FALLS    CLOUDY    39  25  57 SW22      29.68F WCI  29
MALMSTROM AFB  CLOUDY    42  27  56 SW24G31   29.69F
HELENA         CLOUDY    15   8  73 NW6       29.88F WCI   6
AUGUSTA          N/A     35  26  69 S17       29.65F WCI  25
BOWMANS CRNR     N/A     30  19  62 S30       29.70F WCI  15
CHOTEAU          N/A     39  27  60 S18G25    29.64F WCI  30
CONRAD           N/A     38  30  73 S14       29.68F WCI  30
POWER            N/A     35  24  66 S16       29.66F WCI  24
RAYNESFORD       N/A     49  25  38 SW15      29.71F
ULM              N/A     44  26  48 MISG      29.71F
$$

MTZ011-013-016-021-045-047-050-051-180700-
NORTH CENTRAL MONTANA

CITY           SKY/WX    TMP DP  RH WIND       PRES   REMARKS
HAVRE          CLOUDY    37  29  72 SW16      29.66S WCI  28
LEWISTOWN      CLOUDY    46  26  45 SW13      29.76R
N BAR RANCH      N/A     43  28  56 VRB7      29.77R
CHINOOK          N/A     37  28  70 W6        29.65S
DENTON           N/A     40  30  67 S14       29.69F
FORT BENTON      N/A     45  27  49 MISG      29.69F
GEYSER           N/A     45  29  54 SW8       29.70F
GRASS RANGE      N/A     42  30  62 SW12      29.71R
JUDITH GAP     MOCLDY    44  25  47 W26       29.77F
ROY              N/A     49  33  54 MISG      29.70S
STANFORD         N/A     47  28  47 SW22      29.72F
WINIFRED         N/A     44  29  57 SW16      29.71S
$$

MTZ017>020-022>027-061-062-180700-
NORTHEAST MONTANA

CITY           SKY/WX    TMP DP  RH WIND       PRES   REMARKS
GLASGOW        CLOUDY    26  22  84 E10       29.68F WCI  16
JORDAN           N/A     39  29  67 SW12      29.70F WCI  32
SIDNEY         CLOUDY    26  21  81 S9        29.74F WCI  17
WOLF POINT     CLOUDY    16  13  88 CALM      29.71S
PLENTYWOOD       N/A     30  25  80 SE8       29.65F WCI  23
POPLAR           N/A     28  25  86 CALM      29.71F
SCOBEY           N/A     35  23  62 CALM      29.66F
$$

MTZ028>42-056>058-180700-
SOUTHCENTRAL AND SOUTHEAST MONTANA

CITY           SKY/WX    TMP DP  RH WIND       PRES   REMARKS
BAKER          CLOUDY    35  21  56 SW17      29.80S WCI  25
BILLINGS       CLOUDY    31  13  47 W29G36    29.83F WCI  16
LIVINGSTON     CLOUDY    40  18  41 W31G39    29.86S
MILES CITY     CLOUDY    25  16  68 S5        29.82S
BIG TIMBER     CLEAR     39  18  41 W18       29.88F WCI  30
FORSYTH          N/A     28  19  69 SE5       29.81F
HARLOWTON        N/A     35  21  55 W17       29.81R WCI  25
LAUREL           N/A     29  13  51 S31       29.83F WCI  13
$$

REGIONAL REPORTS...DAKOTAS

CITY           SKY/WX    TMP DP  RH WIND       PRES   REMARKS
WILLISTON      CLOUDY    30  22  72 S10       29.71F WCI  21
MINOT          CLOUDY    38  27  64 SW15      29.66R WCI  29
DICKINSON      CLOUDY    33  22  63 W15       29.75R WCI  23
BEACH            N/A     36  23  60 W18G24    29.79S WCI  25
CROSBY           N/A     32  27  80 S17       29.66S WCI  21
TIOGA            N/A     28  27  93 W6        29.69S WCI  22
WATFORD CITY     N/A     32  25  74 SW10      29.73S WCI  24
BISMARCK       CLOUDY    26  18  71 S5        29.77R
GRAND FORKS    CLOUDY    22  15  75 S15       29.68F WCI   9
FARGO          CLOUDY    23  17  78 S13       29.78F WCI  11
BUFFALO SD       N/A     34  20  56 W10       29.76R WCI  26
RAPID CITY     CLOUDY    26  15  63 W6        29.86S WCI  19
$$

REGIONAL REPORTS...WYOMING/IDAHO/WASHINGTON

CITY           SKY/WX    TMP DP  RH WIND       PRES   REMARKS
GILLETTE       CLOUDY    35  19  52 SW16      29.89R WCI  25
SHERIDAN       CLOUDY    19  13  77 S3        29.88R
BUFFALO WY     CLOUDY    34  19  54 CALM      29.89S
CODY           CLOUDY    15   8  73 CALM      29.94R
YELLOWSTONE LA   N/A     -2  -5  87 NW3       30.13F
IDAHO FALLS    CLOUDY     0  -3  87 N9        30.20S WCI -15
SALMON         CLOUDY    -9 -13  84 CALM      30.19F
BOISE          CLEAR      6   2  83 CALM      30.17R FOG
SPOKANE        FRZ RAIN  29  26  89 E6        29.80S FOG     WCI  23
$$

REGIONAL REPORTS...ALBERTA

CITY           SKY/WX    TMP DP  RH WIND       PRES   REMARKS
EDMONTON       CLEAR     30  21  69 E2        29.24F
CALGARY        PTCLDY    34  28  80 N5        29.36F
LETHBRIDGE     CLEAR     36  32  87 VRB2      29.52F
MEDICINE HAT   CLOUDY    41  32  70 S14G21    29.54F
WATERTON GATE    N/A     46  18  31 SW29G47     N/A
CARDSTON         N/A     46  25  42 W3          N/A
MILK RIVER       N/A     43  27  52 S15         N/A
ONEFOUR          N/A     39  28  65 SE6         N/A
$$

REGIONAL REPORTS...SASKATCHEWAN

CITY           SKY/WX    TMP DP  RH WIND       PRES   REMARKS
SWIFT CURRENT  CLEAR     37  32  81 SW17      29.51F WCI  28
REGINA         CLEAR     30  27  86 SW10      29.54R WCI  21
SASKATOON      CLEAR     30  27  86 SW10      29.44R WCI  21
CYPRESS HILLS    N/A     41  28  60 SW12G18     N/A
VAL MARIE        N/A     34  25  69 SW6         N/A  WCI  29
ROCKGLEN         N/A     39  30  70 W22         N/A  WCI  29
$$




USA.gov is the U.S. government's official web portal to all federal, state and local government web resources and services.